Time,TemperatureF,DewpointF,PressureIn,WindDirection,WindDirectionDegrees,WindSpeedMPH,WindSpeedGustMPH,Humidity,HourlyPrecipIn,Conditions,Clouds,dailyrainin,SoftwareType,DateUTC
2013-01-01 00:04:00,28.4,23.9,30.34,NNW,327,1.0,2.0,83,0.00,,,0.00,WUHU216DAVISVP2,2013-01-01 07:04:00,
2013-01-01 00:09:00,28.1,23.3,30.34,North,0,0.0,0.0,82,0.00,,,0.00,WUHU216DAVISVP2,2013-01-01 07:09:00,
2013-01-01 00:14:00,27.7,23.5,30.34,North,0,0.0,0.0,84,0.00,,,0.00,WUHU216DAVISVP2,2013-01-01 07:14:00,
2013-01-01 00:19:00,27.8,23.6,30.34,North,0,0.0,0.0,84,0.00,,,0.00,WUHU216DAVISVP2,2013-01-01 07:19:00,
2013-01-01 00:24:00,28.0,23.5,30.34,North,0,0.0,0.0,83,0.00,,,0.00,WUHU216DAVISVP2,2013-01-01 07:24:00,
2013-01-01 00:29:00,28.1,23.6,30.34,North,0,0.0,0.0,83,0.00,,,0.00,WUHU216DAVISVP2,2013-01-01 07:29:00,
2013-01-01 00:35:00,28.1,23.3,30.34,North,0,0.0,0.0,82,0.00,,,0.00,WUHU216DAVISVP2,2013-01-01 07:35:00,
2013-01-01 00:40:00,28.0,23.2,30.35,North,0,0.0,0.0,82,0.00,,,0.00,WUHU216DAVISVP2,2013-01-01 07:40:00,
2013-01-01 00:45:00,27.7,22.9,30.35,North,0,0.0,0.0,82,0.00,,,0.00,WUHU216DAVISVP2,2013-01-01 07:45:00,
2013-01-01 00:50:00,27.1,22.3,30.35,North,0,0.0,0.0,82,0.00,,,0.00,WUHU216DAVISVP2,2013-01-01 07:50:00,
2013-01-01 00:55:00,26.3,21.8,30.35,North,0,0.0,0.0,83,0.00,,,0.00,WUHU216DAVISVP2,2013-01-01 07:55:00,
2013-01-01 01:00:00,25.6,21.4,30.35,North,0,0.0,0.0,84,0.00,,,0.00,WUHU216DAVISVP2,2013-01-01 08:00:00,
2013-01-01 01:05:00,25.0,20.8,30.35,North,0,0.0,0.0,84,0.00,,,0.00,WUHU216DAVISVP2,2013-01-01 08:05:00,
2013-01-01 01:10:00,24.4,20.8,30.35,North,0,0.0,0.0,86,0.00,,,0.00,WUHU216DAVISVP2,2013-01-01 08:10:00,
2013-01-01 01:15:00,23.9,20.3,30.35,North,0,0.0,0.0,86,0.00,,,0.00,WUHU216DAVISVP2,2013-01-01 08:15:00,
2013-01-01 01:20:00,23.8,20.5,30.35,North,0,0.0,0.0,87,0.00,,,0.00,WUHU216DAVISVP2,2013-01-01 08:20:00,
2013-01-01 01:25:00,24.2,20.9,30.35,North,0,0.0,0.0,87,0.00,,,0.00,WUHU216DAVISVP2,2013-01-01 08:25:00,
2013-01-01 01:30:00,24.1,20.2,30.35,North,0,0.0,0.0,85,0.00,,,0.00,WUHU216DAVISVP2,2013-01-01 08:30:00,
2013-01-01 01:35:00,23.7,19.8,30.35,North,0,0.0,0.0,85,0.00,,,0.00,WUHU216DAVISVP2,2013-01-01 08:35:00,
2013-01-01 01:40:00,22.9,19.3,30.36,North,0,0.0,0.0,86,0.00,,,0.00,WUHU216DAVISVP2,2013-01-01 08:40:00,
2013-01-01 01:46:00,22.4,19.1,30.36,North,0,0.0,0.0,87,0.00,,,0.00,WUHU216DAVISVP2,2013-01-01 08:46:00,
2013-01-01 01:51:00,22.2,19.1,30.36,North,0,0.0,0.0,88,0.00,,,0.00,WUHU216DAVISVP2,2013-01-01 08:51:00,
2013-01-01 01:56:00,22.0,19.2,30.37,North,0,0.0,0.0,89,0.00,,,0.00,WUHU216DAVISVP2,2013-01-01 08:56:00,
2013-01-01 02:01:00,21.9,19.1,30.37,North,0,0.0,0.0,89,0.00,,,0.00,WUHU216DAVISVP2,2013-01-01 09:01:00,
2013-01-01 02:06:00,21.8,19.0,30.37,North,0,0.0,0.0,89,0.00,,,0.00,WUHU216DAVISVP2,2013-01-01 09:06:00,
2013-01-01 02:11:00,21.8,19.3,30.37,North,0,0.0,0.0,90,0.00,,,0.00,WUHU216DAVISVP2,2013-01-01 09:11:00,
2013-01-01 02:16:00,22.3,20.0,30.37,North,0,0.0,0.0,91,0.00,,,0.00,WUHU216DAVISVP2,2013-01-01 09:16:00,
2013-01-01 02:21:00,22.6,20.1,30.38,North,0,0.0,0.0,90,0.00,,,0.00,WUHU216DAVISVP2,2013-01-01 09:21:00,
2013-01-01 02:26:00,22.4,19.3,30.38,North,0,0.0,0.0,88,0.00,,,0.00,WUHU216DAVISVP2,2013-01-01 09:26:00,
2013-01-01 02:31:00,21.9,18.8,30.38,North,0,0.0,0.0,88,0.00,,,0.00,WUHU216DAVISVP2,2013-01-01 09:31:00,
2013-01-01 02:36:00,21.5,18.7,30.38,North,0,0.0,0.0,89,0.00,,,0.00,WUHU216DAVISVP2,2013-01-01 09:36:00,
2013-01-01 02:41:00,21.1,18.3,30.38,North,0,0.0,0.0,89,0.00,,,0.00,WUHU216DAVISVP2,2013-01-01 09:41:00,
2013-01-01 02:46:00,20.9,18.1,30.38,North,0,0.0,0.0,89,0.00,,,0.00,WUHU216DAVISVP2,2013-01-01 09:46:00,
2013-01-01 02:51:00,20.8,18.3,30.38,North,0,0.0,0.0,90,0.00,,,0.00,WUHU216DAVISVP2,2013-01-01 09:51:00,
2013-01-01 02:56:00,20.9,18.4,30.38,North,0,0.0,0.0,90,0.00,,,0.00,WUHU216DAVISVP2,2013-01-01 09:56:00,
2013-01-01 03:01:00,21.6,19.6,30.38,North,0,0.0,0.0,92,0.00,,,0.00,WUHU216DAVISVP2,2013-01-01 10:01:00,
2013-01-01 03:07:00,22.1,19.6,30.38,North,0,0.0,0.0,90,0.00,,,0.00,WUHU216DAVISVP2,2013-01-01 10:07:00,
2013-01-01 03:12:00,21.9,18.8,30.39,North,0,0.0,0.0,88,0.00,,,0.00,WUHU216DAVISVP2,2013-01-01 10:12:00,
2013-01-01 03:17:00,22.0,19.5,30.38,North,0,0.0,0.0,90,0.00,,,0.00,WUHU216DAVISVP2,2013-01-01 10:17:00,
2013-01-01 03:22:00,22.4,19.9,30.38,North,0,0.0,0.0,90,0.00,,,0.00,WUHU216DAVISVP2,2013-01-01 10:22:00,
2013-01-01 03:27:00,22.7,19.9,30.38,North,0,0.0,0.0,89,0.00,,,0.00,WUHU216DAVISVP2,2013-01-01 10:27:00,
2013-01-01 03:32:00,22.9,19.8,30.38,North,0,0.0,0.0,88,0.00,,,0.00,WUHU216DAVISVP2,2013-01-01 10:32:00,
2013-01-01 03:37:00,21.9,18.3,30.38,North,0,0.0,0.0,86,0.00,,,0.00,WUHU216DAVISVP2,2013-01-01 10:37:00,
2013-01-01 03:42:00,21.1,17.8,30.38,North,0,0.0,0.0,87,0.00,,,0.00,WUHU216DAVISVP2,2013-01-01 10:42:00,
2013-01-01 03:47:00,20.7,17.7,30.38,North,0,0.0,0.0,88,0.00,,,0.00,WUHU216DAVISVP2,2013-01-01 10:47:00,
2013-01-01 03:52:00,20.5,17.7,30.38,North,0,0.0,0.0,89,0.00,,,0.00,WUHU216DAVISVP2,2013-01-01 10:52:00,
2013-01-01 03:57:00,20.1,17.3,30.38,North,0,0.0,0.0,89,0.00,,,0.00,WUHU216DAVISVP2,2013-01-01 10:57:00,
2013-01-01 04:02:00,20.2,17.7,30.38,North,0,0.0,0.0,90,0.00,,,0.00,WUHU216DAVISVP2,2013-01-01 11:02:00,
2013-01-01 04:07:00,20.4,18.1,30.38,North,0,0.0,0.0,91,0.00,,,0.00,WUHU216DAVISVP2,2013-01-01 11:07:00,
2013-01-01 04:12:00,20.4,18.1,30.38,North,0,0.0,0.0,91,0.00,,,0.00,WUHU216DAVISVP2,2013-01-01 11:12:00,
2013-01-01 04:18:00,20.6,18.3,30.38,North,0,0.0,0.0,91,0.00,,,0.00,WUHU216DAVISVP2,2013-01-01 11:18:00,
2013-01-01 04:23:00,20.6,18.1,30.38,North,0,0.0,0.0,90,0.00,,,0.00,WUHU216DAVISVP2,2013-01-01 11:23:00,
2013-01-01 04:28:00,20.7,18.2,30.37,North,0,0.0,0.0,90,0.00,,,0.00,WUHU216DAVISVP2,2013-01-01 11:28:00,
2013-01-01 04:33:00,21.2,18.9,30.38,North,0,0.0,0.0,91,0.00,,,0.00,WUHU216DAVISVP2,2013-01-01 11:33:00,
2013-01-01 04:38:00,21.7,19.4,30.38,North,0,0.0,0.0,91,0.00,,,0.00,WUHU216DAVISVP2,2013-01-01 11:38:00,
2013-01-01 04:43:00,22.0,19.5,30.38,North,0,0.0,0.0,90,0.00,,,0.00,WUHU216DAVISVP2,2013-01-01 11:43:00,
2013-01-01 04:48:00,22.4,19.9,30.38,North,0,0.0,0.0,90,0.00,,,0.00,WUHU216DAVISVP2,2013-01-01 11:48:00,
2013-01-01 04:53:00,23.0,20.5,30.38,North,0,0.0,0.0,90,0.00,,,0.00,WUHU216DAVISVP2,2013-01-01 11:53:00,
2013-01-01 04:58:00,22.8,19.2,30.38,North,0,0.0,0.0,86,0.00,,,0.00,WUHU216DAVISVP2,2013-01-01 11:58:00,
2013-01-01 05:03:00,22.0,18.4,30.38,North,0,0.0,0.0,86,0.00,,,0.00,WUHU216DAVISVP2,2013-01-01 12:03:00,
2013-01-01 05:08:00,21.1,17.5,30.38,North,0,0.0,0.0,86,0.00,,,0.00,WUHU216DAVISVP2,2013-01-01 12:08:00,
2013-01-01 05:13:00,20.7,17.7,30.38,North,0,0.0,0.0,88,0.00,,,0.00,WUHU216DAVISVP2,2013-01-01 12:13:00,
2013-01-01 05:18:00,20.5,17.5,30.38,North,0,0.0,0.0,88,0.00,,,0.00,WUHU216DAVISVP2,2013-01-01 12:18:00,
2013-01-01 05:23:00,20.7,18.2,30.38,North,0,0.0,0.0,90,0.00,,,0.00,WUHU216DAVISVP2,2013-01-01 12:23:00,
2013-01-01 05:28:00,21.2,18.9,30.38,North,0,0.0,0.0,91,0.00,,,0.00,WUHU216DAVISVP2,2013-01-01 12:28:00,
2013-01-01 05:33:00,22.1,20.1,30.38,North,0,0.0,0.0,92,0.00,,,0.00,WUHU216DAVISVP2,2013-01-01 12:33:00,
2013-01-01 05:38:00,22.7,20.2,30.38,North,0,0.0,0.0,90,0.00,,,0.00,WUHU216DAVISVP2,2013-01-01 12:38:00,
2013-01-01 05:44:00,22.8,20.0,30.38,North,0,0.0,0.0,89,0.00,,,0.00,WUHU216DAVISVP2,2013-01-01 12:44:00,
2013-01-01 05:49:00,22.7,19.9,30.37,North,0,0.0,0.0,89,0.00,,,0.00,WUHU216DAVISVP2,2013-01-01 12:49:00,
2013-01-01 05:54:00,22.6,19.5,30.37,North,0,0.0,0.0,88,0.00,,,0.00,WUHU216DAVISVP2,2013-01-01 12:54:00,
2013-01-01 05:59:00,22.7,20.2,30.37,North,0,0.0,0.0,90,0.00,,,0.00,WUHU216DAVISVP2,2013-01-01 12:59:00,
2013-01-01 06:04:00,22.9,20.1,30.37,North,0,0.0,0.0,89,0.00,,,0.00,WUHU216DAVISVP2,2013-01-01 13:04:00,
2013-01-01 06:09:00,22.6,19.5,30.37,North,0,0.0,0.0,88,0.00,,,0.00,WUHU216DAVISVP2,2013-01-01 13:09:00,
2013-01-01 06:14:00,22.4,19.6,30.38,North,0,0.0,0.0,89,0.00,,,0.00,WUHU216DAVISVP2,2013-01-01 13:14:00,
2013-01-01 06:19:00,22.4,19.6,30.38,North,0,0.0,0.0,89,0.00,,,0.00,WUHU216DAVISVP2,2013-01-01 13:19:00,
2013-01-01 06:24:00,22.4,19.9,30.38,North,0,0.0,0.0,90,0.00,,,0.00,WUHU216DAVISVP2,2013-01-01 13:24:00,
2013-01-01 06:29:00,22.4,19.9,30.38,North,0,0.0,0.0,90,0.00,,,0.00,WUHU216DAVISVP2,2013-01-01 13:29:00,
2013-01-01 06:34:00,22.6,20.3,30.38,North,0,0.0,0.0,91,0.00,,,0.00,WUHU216DAVISVP2,2013-01-01 13:34:00,
2013-01-01 06:39:00,23.5,21.2,30.38,North,0,0.0,0.0,91,0.00,,,0.00,WUHU216DAVISVP2,2013-01-01 13:39:00,
2013-01-01 06:44:00,23.7,20.9,30.38,North,0,0.0,0.0,89,0.00,,,0.00,WUHU216DAVISVP2,2013-01-01 13:44:00,
2013-01-01 06:49:00,23.7,20.6,30.38,North,0,0.0,0.0,88,0.00,,,0.00,WUHU216DAVISVP2,2013-01-01 13:49:00,
2013-01-01 06:54:00,23.6,20.5,30.38,North,0,0.0,0.0,88,0.00,,,0.00,WUHU216DAVISVP2,2013-01-01 13:54:00,
2013-01-01 06:59:00,23.9,21.1,30.38,North,0,0.0,0.0,89,0.00,,,0.00,WUHU216DAVISVP2,2013-01-01 13:59:00,
2013-01-01 07:04:00,24.3,20.9,30.38,North,0,0.0,0.0,87,0.00,,,0.00,WUHU216DAVISVP2,2013-01-01 14:04:00,
2013-01-01 07:10:00,24.3,20.4,30.38,North,355,1.0,1.0,85,0.00,,,0.00,WUHU216DAVISVP2,2013-01-01 14:10:00,
2013-01-01 07:15:00,24.2,20.3,30.38,North,0,0.0,0.0,85,0.00,,,0.00,WUHU216DAVISVP2,2013-01-01 14:15:00,
2013-01-01 07:20:00,24.2,20.3,30.38,North,0,0.0,0.0,85,0.00,,,0.00,WUHU216DAVISVP2,2013-01-01 14:20:00,
2013-01-01 07:25:00,24.4,20.2,30.38,North,0,0.0,0.0,84,0.00,,,0.00,WUHU216DAVISVP2,2013-01-01 14:25:00,
2013-01-01 07:30:00,24.5,20.3,30.38,North,0,0.0,0.0,84,0.00,,,0.00,WUHU216DAVISVP2,2013-01-01 14:30:00,
2013-01-01 07:35:00,24.1,19.4,30.38,North,0,0.0,0.0,82,0.00,,,0.00,WUHU216DAVISVP2,2013-01-01 14:35:00,
2013-01-01 07:40:00,23.5,18.8,30.38,North,0,0.0,0.0,82,0.00,,,0.00,WUHU216DAVISVP2,2013-01-01 14:40:00,
2013-01-01 07:45:00,23.2,19.1,30.39,North,0,0.0,0.0,84,0.00,,,0.00,WUHU216DAVISVP2,2013-01-01 14:45:00,
2013-01-01 07:50:00,23.6,20.0,30.39,North,0,0.0,0.0,86,0.00,,,0.00,WUHU216DAVISVP2,2013-01-01 14:50:00,
2013-01-01 07:55:00,24.7,21.3,30.38,North,0,0.0,0.0,87,0.00,,,0.00,WUHU216DAVISVP2,2013-01-01 14:55:00,
2013-01-01 08:00:00,26.0,22.1,30.39,North,0,0.0,0.0,85,0.00,,,0.00,WUHU216DAVISVP2,2013-01-01 15:00:00,
2013-01-01 08:05:00,27.1,22.6,30.39,North,0,0.0,0.0,83,0.00,,,0.00,WUHU216DAVISVP2,2013-01-01 15:05:00,
2013-01-01 08:10:00,28.0,23.2,30.39,North,0,0.0,0.0,82,0.00,,,0.00,WUHU216DAVISVP2,2013-01-01 15:10:00,
2013-01-01 08:16:00,28.9,23.5,30.39,North,0,0.0,0.0,80,0.00,,,0.00,WUHU216DAVISVP2,2013-01-01 15:16:00,
2013-01-01 08:21:00,29.6,24.2,30.40,North,0,0.0,0.0,80,0.00,,,0.00,WUHU216DAVISVP2,2013-01-01 15:21:00,
2013-01-01 08:26:00,30.6,24.3,30.40,North,0,0.0,0.0,77,0.00,,,0.00,WUHU216DAVISVP2,2013-01-01 15:26:00,
2013-01-01 08:31:00,31.9,24.3,30.40,North,0,0.0,0.0,73,0.00,,,0.00,WUHU216DAVISVP2,2013-01-01 15:31:00,
2013-01-01 08:36:00,32.8,24.5,30.40,North,0,0.0,0.0,71,0.00,,,0.00,WUHU216DAVISVP2,2013-01-01 15:36:00,
2013-01-01 08:41:00,33.0,25.3,30.40,North,0,0.0,0.0,73,0.01,,,0.01,WUHU216DAVISVP2,2013-01-01 15:41:00,
2013-01-01 08:46:00,32.6,24.6,30.40,North,0,0.0,0.0,72,0.01,,,0.01,WUHU216DAVISVP2,2013-01-01 15:46:00,
2013-01-01 08:51:00,32.0,24.7,30.40,North,0,0.0,0.0,74,0.01,,,0.01,WUHU216DAVISVP2,2013-01-01 15:51:00,
2013-01-01 08:56:00,31.8,24.8,30.40,North,0,0.0,0.0,75,0.01,,,0.01,WUHU216DAVISVP2,2013-01-01 15:56:00,
2013-01-01 09:01:00,31.8,25.1,30.40,North,0,0.0,0.0,76,0.01,,,0.01,WUHU216DAVISVP2,2013-01-01 16:01:00,
2013-01-01 09:06:00,31.7,24.7,30.40,North,0,0.0,0.0,75,0.01,,,0.01,WUHU216DAVISVP2,2013-01-01 16:06:00,
2013-01-01 09:11:00,31.9,24.9,30.40,NE,54,3.0,4.0,75,0.01,,,0.01,WUHU216DAVISVP2,2013-01-01 16:11:00,
2013-01-01 09:16:00,31.9,24.0,30.40,NE,47,2.0,4.0,72,0.01,,,0.01,WUHU216DAVISVP2,2013-01-01 16:16:00,
2013-01-01 09:21:00,31.9,24.3,30.41,North,0,0.0,0.0,73,0.01,,,0.01,WUHU216DAVISVP2,2013-01-01 16:21:00,
2013-01-01 09:26:00,32.1,24.8,30.41,North,0,0.0,0.0,74,0.01,,,0.01,WUHU216DAVISVP2,2013-01-01 16:26:00,
2013-01-01 09:31:00,32.1,24.1,30.41,North,0,0.0,0.0,72,0.01,,,0.01,WUHU216DAVISVP2,2013-01-01 16:31:00,
2013-01-01 09:37:00,32.1,24.1,30.41,North,0,0.0,0.0,72,0.00,,,0.01,WUHU216DAVISVP2,2013-01-01 16:37:00,
2013-01-01 09:42:00,31.9,23.6,30.41,North,0,0.0,0.0,71,0.00,,,0.01,WUHU216DAVISVP2,2013-01-01 16:42:00,
2013-01-01 09:47:00,32.2,23.6,30.41,North,0,0.0,0.0,70,0.00,,,0.01,WUHU216DAVISVP2,2013-01-01 16:47:00,
2013-01-01 09:52:00,32.3,23.3,30.41,ENE,65,4.0,7.0,69,0.00,,,0.01,WUHU216DAVISVP2,2013-01-01 16:52:00,
2013-01-01 09:57:00,32.2,23.2,30.41,ENE,63,3.0,5.0,69,0.00,,,0.01,WUHU216DAVISVP2,2013-01-01 16:57:00,
2013-01-01 10:02:00,32.4,23.4,30.41,North,0,0.0,0.0,69,0.00,,,0.01,WUHU216DAVISVP2,2013-01-01 17:02:00,
2013-01-01 10:07:00,32.6,24.0,30.41,North,0,0.0,0.0,70,0.00,,,0.01,WUHU216DAVISVP2,2013-01-01 17:07:00,
2013-01-01 10:12:00,33.0,24.3,30.41,North,0,0.0,0.0,70,0.00,,,0.01,WUHU216DAVISVP2,2013-01-01 17:12:00,
2013-01-01 10:17:00,33.6,24.6,30.41,North,10,3.0,3.0,69,0.00,,,0.01,WUHU216DAVISVP2,2013-01-01 17:17:00,
2013-01-01 10:22:00,33.9,24.5,30.41,NNE,25,3.0,5.0,68,0.00,,,0.01,WUHU216DAVISVP2,2013-01-01 17:22:00,
2013-01-01 10:27:00,33.9,24.2,30.40,NNE,22,3.0,6.0,67,0.00,,,0.01,WUHU216DAVISVP2,2013-01-01 17:27:00,
2013-01-01 10:32:00,33.8,23.3,30.40,ENE,76,5.0,9.0,65,0.00,,,0.01,WUHU216DAVISVP2,2013-01-01 17:32:00,
2013-01-01 10:37:00,34.1,25.1,30.41,East,84,4.0,8.0,69,0.00,,,0.01,WUHU216DAVISVP2,2013-01-01 17:37:00,
2013-01-01 10:42:00,34.1,25.7,30.40,East,92,4.0,10.0,71,0.00,,,0.01,WUHU216DAVISVP2,2013-01-01 17:42:00,
2013-01-01 10:47:00,34.2,25.5,30.40,ENE,78,4.0,7.0,70,0.00,,,0.01,WUHU216DAVISVP2,2013-01-01 17:47:00,
2013-01-01 10:52:00,34.5,25.4,30.40,East,86,4.0,7.0,69,0.00,,,0.01,WUHU216DAVISVP2,2013-01-01 17:52:00,
2013-01-01 10:57:00,34.4,24.3,30.40,ENE,74,5.0,9.0,66,0.00,,,0.01,WUHU216DAVISVP2,2013-01-01 17:57:00,
2013-01-01 11:03:00,34.4,24.6,30.39,East,84,6.0,11.0,67,0.00,,,0.01,WUHU216DAVISVP2,2013-01-01 18:03:00,
2013-01-01 11:08:00,34.3,23.8,30.39,East,81,5.0,8.0,65,0.00,,,0.01,WUHU216DAVISVP2,2013-01-01 18:08:00,
2013-01-01 11:13:00,34.4,22.8,30.39,ENE,75,4.0,8.0,62,0.00,,,0.01,WUHU216DAVISVP2,2013-01-01 18:13:00,
2013-01-01 11:18:00,34.4,22.0,30.40,ENE,72,3.0,5.0,60,0.00,,,0.01,WUHU216DAVISVP2,2013-01-01 18:18:00,
2013-01-01 11:23:00,34.6,21.8,30.39,East,98,3.0,9.0,59,0.00,,,0.01,WUHU216DAVISVP2,2013-01-01 18:23:00,
2013-01-01 11:28:00,34.8,22.4,30.39,NE,47,4.0,7.0,60,0.00,,,0.01,WUHU216DAVISVP2,2013-01-01 18:28:00,
2013-01-01 11:33:00,34.9,23.6,30.38,East,81,3.0,6.0,63,0.00,,,0.01,WUHU216DAVISVP2,2013-01-01 18:33:00,
2013-01-01 11:38:00,35.3,22.0,30.38,ENE,58,5.0,8.0,58,0.00,,,0.01,WUHU216DAVISVP2,2013-01-01 18:38:00,
2013-01-01 11:43:00,35.3,22.4,30.38,East,101,4.0,7.0,59,0.00,,,0.01,WUHU216DAVISVP2,2013-01-01 18:43:00,
2013-01-01 11:48:00,35.6,22.3,30.38,East,99,3.0,7.0,58,0.00,,,0.01,WUHU216DAVISVP2,2013-01-01 18:48:00,
2013-01-01 11:53:00,35.6,23.1,30.37,ESE,106,4.0,9.0,60,0.00,,,0.01,WUHU216DAVISVP2,2013-01-01 18:53:00,
2013-01-01 11:58:00,35.9,23.4,30.36,East,91,4.0,11.0,60,0.00,,,0.01,WUHU216DAVISVP2,2013-01-01 18:58:00,
2013-01-01 12:03:00,36.0,22.7,30.36,East,84,4.0,8.0,58,0.00,,,0.01,WUHU216DAVISVP2,2013-01-01 19:03:00,
2013-01-01 12:08:00,36.0,21.4,30.36,East,85,3.0,8.0,55,0.00,,,0.01,WUHU216DAVISVP2,2013-01-01 19:08:00,
2013-01-01 12:13:00,36.1,20.6,30.36,North,0,0.0,0.0,53,0.00,,,0.01,WUHU216DAVISVP2,2013-01-01 19:13:00,
2013-01-01 12:19:00,36.3,22.1,30.36,ENE,68,5.0,7.0,56,0.00,,,0.01,WUHU216DAVISVP2,2013-01-01 19:19:00,
2013-01-01 12:24:00,36.9,22.2,30.36,ENE,72,3.0,6.0,55,0.00,,,0.01,WUHU216DAVISVP2,2013-01-01 19:24:00,
2013-01-01 12:29:00,37.2,22.5,30.36,East,82,3.0,5.0,55,0.00,,,0.01,WUHU216DAVISVP2,2013-01-01 19:29:00,
2013-01-01 12:34:00,37.2,22.1,30.35,East,83,2.0,3.0,54,0.00,,,0.01,WUHU216DAVISVP2,2013-01-01 19:34:00,
2013-01-01 12:39:00,37.1,21.1,30.35,North,0,0.0,0.0,52,0.00,,,0.01,WUHU216DAVISVP2,2013-01-01 19:39:00,
2013-01-01 12:44:00,37.4,22.7,30.35,East,97,4.0,6.0,55,0.00,,,0.01,WUHU216DAVISVP2,2013-01-01 19:44:00,
2013-01-01 12:49:00,37.5,21.4,30.35,ESE,114,4.0,5.0,52,0.00,,,0.01,WUHU216DAVISVP2,2013-01-01 19:49:00,
2013-01-01 12:54:00,37.6,20.1,30.34,North,0,0.0,0.0,49,0.00,,,0.01,WUHU216DAVISVP2,2013-01-01 19:54:00,
2013-01-01 12:59:00,37.7,21.6,30.34,North,0,0.0,0.0,52,0.00,,,0.01,WUHU216DAVISVP2,2013-01-01 19:59:00,
2013-01-01 13:04:00,37.9,22.7,30.33,SE,142,5.0,10.0,54,0.00,,,0.01,WUHU216DAVISVP2,2013-01-01 20:04:00,
2013-01-01 13:09:00,38.1,22.9,30.33,SSE,147,3.0,6.0,54,0.00,,,0.01,WUHU216DAVISVP2,2013-01-01 20:09:00,
2013-01-01 13:14:00,38.2,23.5,30.32,SE,137,3.0,5.0,55,0.00,,,0.01,WUHU216DAVISVP2,2013-01-01 20:14:00,
2013-01-01 13:19:00,38.5,22.4,30.32,East,95,4.0,7.0,52,0.00,,,0.01,WUHU216DAVISVP2,2013-01-01 20:19:00,
2013-01-01 13:24:00,38.6,21.5,30.32,East,91,5.0,9.0,50,0.00,,,0.01,WUHU216DAVISVP2,2013-01-01 20:24:00,
2013-01-01 13:29:00,38.5,21.9,30.32,East,89,5.0,8.0,51,0.00,,,0.01,WUHU216DAVISVP2,2013-01-01 20:29:00,
2013-01-01 13:34:00,38.6,23.8,30.33,ESE,105,4.0,9.0,55,0.00,,,0.01,WUHU216DAVISVP2,2013-01-01 20:34:00,
2013-01-01 13:39:00,38.7,21.1,30.32,ESE,107,5.0,9.0,49,0.00,,,0.01,WUHU216DAVISVP2,2013-01-01 20:39:00,
2013-01-01 13:45:00,38.7,21.6,30.33,ESE,104,5.0,8.0,50,0.00,,,0.01,WUHU216DAVISVP2,2013-01-01 20:45:00,
2013-01-01 13:50:00,38.6,22.0,30.33,SE,127,3.0,6.0,51,0.00,,,0.01,WUHU216DAVISVP2,2013-01-01 20:50:00,
2013-01-01 13:55:00,38.8,20.7,30.32,ESE,118,3.0,7.0,48,0.00,,,0.01,WUHU216DAVISVP2,2013-01-01 20:55:00,
2013-01-01 14:00:00,38.7,22.6,30.31,East,88,4.0,9.0,52,0.00,,,0.01,WUHU216DAVISVP2,2013-01-01 21:00:00,
2013-01-01 14:05:00,38.8,21.2,30.31,East,87,6.0,9.0,49,0.00,,,0.01,WUHU216DAVISVP2,2013-01-01 21:05:00,
2013-01-01 14:10:00,39.2,22.1,30.32,East,95,5.0,9.0,50,0.00,,,0.01,WUHU216DAVISVP2,2013-01-01 21:10:00,
2013-01-01 14:15:00,39.0,21.4,30.31,East,83,5.0,9.0,49,0.00,,,0.01,WUHU216DAVISVP2,2013-01-01 21:15:00,
2013-01-01 14:20:00,38.9,21.3,30.31,East,94,4.0,9.0,49,0.00,,,0.01,WUHU216DAVISVP2,2013-01-01 21:20:00,
2013-01-01 14:25:00,39.0,21.9,30.31,ESE,103,4.0,9.0,50,0.00,,,0.01,WUHU216DAVISVP2,2013-01-01 21:25:00,
2013-01-01 14:30:00,39.0,20.9,30.31,East,88,4.0,7.0,48,0.00,,,0.01,WUHU216DAVISVP2,2013-01-01 21:30:00,
2013-01-01 14:35:00,39.2,22.1,30.31,ESE,105,5.0,9.0,50,0.00,,,0.01,WUHU216DAVISVP2,2013-01-01 21:35:00,
2013-01-01 14:40:00,39.2,23.5,30.32,SE,124,5.0,10.0,53,0.00,,,0.01,WUHU216DAVISVP2,2013-01-01 21:40:00,
2013-01-01 14:45:00,39.4,22.7,30.31,SE,128,4.0,8.0,51,0.00,,,0.01,WUHU216DAVISVP2,2013-01-01 21:45:00,
2013-01-01 14:51:00,39.3,22.2,30.30,SE,141,5.0,8.0,50,0.00,,,0.01,WUHU216DAVISVP2,2013-01-01 21:51:00,
2013-01-01 14:56:00,39.2,22.1,30.30,ESE,114,4.0,10.0,50,0.00,,,0.01,WUHU216DAVISVP2,2013-01-01 21:56:00,
2013-01-01 15:01:00,39.4,21.2,30.31,East,90,2.0,5.0,48,0.00,,,0.01,WUHU216DAVISVP2,2013-01-01 22:01:00,
2013-01-01 15:06:00,39.5,22.3,30.31,ESE,115,4.0,8.0,50,0.00,,,0.01,WUHU216DAVISVP2,2013-01-01 22:06:00,
2013-01-01 15:11:00,39.5,20.8,30.31,ESE,121,3.0,8.0,47,0.00,,,0.01,WUHU216DAVISVP2,2013-01-01 22:11:00,
2013-01-01 15:16:00,39.5,21.8,30.31,ENE,78,3.0,7.0,49,0.00,,,0.01,WUHU216DAVISVP2,2013-01-01 22:16:00,
2013-01-01 15:21:00,39.6,21.9,30.31,East,88,3.0,7.0,49,0.00,,,0.01,WUHU216DAVISVP2,2013-01-01 22:21:00,
2013-01-01 15:26:00,39.4,21.7,30.31,East,99,6.0,8.0,49,0.00,,,0.01,WUHU216DAVISVP2,2013-01-01 22:26:00,
2013-01-01 15:31:00,39.3,20.1,30.30,ESE,110,4.0,9.0,46,0.00,,,0.01,WUHU216DAVISVP2,2013-01-01 22:31:00,
2013-01-01 15:36:00,39.3,21.2,30.30,East,85,4.0,8.0,48,0.00,,,0.01,WUHU216DAVISVP2,2013-01-01 22:36:00,
2013-01-01 15:41:00,39.3,22.6,30.30,East,79,3.0,6.0,51,0.00,,,0.01,WUHU216DAVISVP2,2013-01-01 22:41:00,
2013-01-01 15:46:00,39.5,20.8,30.31,East,101,2.0,5.0,47,0.00,,,0.01,WUHU216DAVISVP2,2013-01-01 22:46:00,
2013-01-01 15:51:00,39.5,20.8,30.31,East,95,3.0,7.0,47,0.00,,,0.01,WUHU216DAVISVP2,2013-01-01 22:51:00,
2013-01-01 15:56:00,39.6,20.4,30.31,East,82,2.0,5.0,46,0.00,,,0.01,WUHU216DAVISVP2,2013-01-01 22:56:00,
2013-01-01 16:01:00,39.4,20.2,30.31,East,84,3.0,5.0,46,0.00,,,0.01,WUHU216DAVISVP2,2013-01-01 23:01:00,
2013-01-01 16:06:00,39.2,21.1,30.30,ENE,71,4.0,7.0,48,0.00,,,0.01,WUHU216DAVISVP2,2013-01-01 23:06:00,
2013-01-01 16:11:00,39.3,22.2,30.30,ENE,62,2.0,2.0,50,0.00,,,0.01,WUHU216DAVISVP2,2013-01-01 23:11:00,
2013-01-01 16:17:00,39.3,21.2,30.30,North,0,0.0,0.0,48,0.00,,,0.01,WUHU216DAVISVP2,2013-01-01 23:17:00,
2013-01-01 16:22:00,39.4,19.7,30.30,ESE,109,2.0,3.0,45,0.00,,,0.01,WUHU216DAVISVP2,2013-01-01 23:22:00,
2013-01-01 16:27:00,39.3,19.0,30.30,North,0,0.0,0.0,44,0.00,,,0.01,WUHU216DAVISVP2,2013-01-01 23:27:00,
2013-01-01 16:32:00,39.4,20.7,30.30,ESE,113,2.0,3.0,47,0.00,,,0.01,WUHU216DAVISVP2,2013-01-01 23:32:00,
2013-01-01 16:37:00,39.2,21.1,30.30,East,101,4.0,7.0,48,0.00,,,0.01,WUHU216DAVISVP2,2013-01-01 23:37:00,
2013-01-01 16:42:00,39.0,21.4,30.30,East,89,3.0,5.0,49,0.00,,,0.01,WUHU216DAVISVP2,2013-01-01 23:42:00,
2013-01-01 16:47:00,38.6,21.5,30.30,ESE,105,3.0,4.0,50,0.00,,,0.01,WUHU216DAVISVP2,2013-01-01 23:47:00,
2013-01-01 16:52:00,38.1,22.0,30.30,North,0,0.0,0.0,52,0.00,,,0.01,WUHU216DAVISVP2,2013-01-01 23:52:00,
2013-01-01 16:57:00,37.6,22.0,30.30,North,0,0.0,0.0,53,0.00,,,0.01,WUHU216DAVISVP2,2013-01-01 23:57:00,
2013-01-01 17:02:00,37.3,22.2,30.30,North,0,0.0,0.0,54,0.00,,,0.01,WUHU216DAVISVP2,2013-01-02 00:02:00,
2013-01-01 17:07:00,36.9,22.7,30.31,North,0,0.0,0.0,56,0.00,,,0.01,WUHU216DAVISVP2,2013-01-02 00:07:00,
2013-01-01 17:12:00,36.5,22.3,30.31,North,0,0.0,0.0,56,0.00,,,0.01,WUHU216DAVISVP2,2013-01-02 00:12:00,
2013-01-01 17:17:00,36.1,22.4,30.31,North,0,0.0,0.0,57,0.00,,,0.01,WUHU216DAVISVP2,2013-01-02 00:17:00,
2013-01-01 17:22:00,35.7,22.4,30.31,North,0,0.0,0.0,58,0.00,,,0.01,WUHU216DAVISVP2,2013-01-02 00:22:00,
2013-01-01 17:27:00,35.4,22.5,30.31,North,0,0.0,0.0,59,0.00,,,0.01,WUHU216DAVISVP2,2013-01-02 00:27:00,
2013-01-01 17:32:00,35.0,22.6,30.31,North,0,0.0,0.0,60,0.00,,,0.01,WUHU216DAVISVP2,2013-01-02 00:32:00,
2013-01-01 17:37:00,34.5,22.9,30.31,North,0,0.0,0.0,62,0.00,,,0.01,WUHU216DAVISVP2,2013-01-02 00:37:00,
2013-01-01 17:42:00,34.0,22.8,30.31,North,0,0.0,0.0,63,0.00,,,0.01,WUHU216DAVISVP2,2013-01-02 00:42:00,
2013-01-01 17:48:00,33.6,22.8,30.31,North,0,0.0,0.0,64,0.00,,,0.01,WUHU216DAVISVP2,2013-01-02 00:48:00,
2013-01-01 17:53:00,33.5,23.1,30.31,North,0,0.0,0.0,65,0.00,,,0.01,WUHU216DAVISVP2,2013-01-02 00:53:00,
2013-01-01 17:58:00,33.4,23.0,30.31,North,0,0.0,0.0,65,0.00,,,0.01,WUHU216DAVISVP2,2013-01-02 00:58:00,
2013-01-01 18:03:00,33.2,23.1,30.31,North,0,0.0,0.0,66,0.00,,,0.01,WUHU216DAVISVP2,2013-01-02 01:03:00,
2013-01-01 18:08:00,32.8,23.1,30.31,North,0,0.0,0.0,67,0.00,,,0.01,WUHU216DAVISVP2,2013-01-02 01:08:00,
2013-01-01 18:13:00,32.7,23.4,30.31,North,0,0.0,0.0,68,0.00,,,0.01,WUHU216DAVISVP2,2013-01-02 01:13:00,
2013-01-01 18:18:00,32.6,23.3,30.31,North,0,0.0,0.0,68,0.00,,,0.01,WUHU216DAVISVP2,2013-01-02 01:18:00,
2013-01-01 18:23:00,32.3,23.0,30.31,North,0,0.0,0.0,68,0.00,,,0.01,WUHU216DAVISVP2,2013-01-02 01:23:00,
2013-01-01 18:28:00,32.1,22.8,30.31,North,0,0.0,0.0,68,0.00,,,0.01,WUHU216DAVISVP2,2013-01-02 01:28:00,
2013-01-01 18:33:00,32.3,23.0,30.31,North,0,0.0,0.0,68,0.00,,,0.01,WUHU216DAVISVP2,2013-01-02 01:33:00,
2013-01-01 18:38:00,32.3,22.6,30.31,North,0,0.0,0.0,67,0.00,,,0.01,WUHU216DAVISVP2,2013-01-02 01:38:00,
2013-01-01 18:43:00,31.5,22.2,30.31,North,0,0.0,0.0,68,0.00,,,0.01,WUHU216DAVISVP2,2013-01-02 01:43:00,
2013-01-01 18:48:00,31.2,22.3,30.31,North,0,0.0,0.0,69,0.00,,,0.01,WUHU216DAVISVP2,2013-01-02 01:48:00,
2013-01-01 18:53:00,31.4,22.1,30.32,North,0,0.0,0.0,68,0.00,,,0.01,WUHU216DAVISVP2,2013-01-02 01:53:00,
2013-01-01 18:58:00,31.5,22.6,30.31,North,0,0.0,0.0,69,0.00,,,0.01,WUHU216DAVISVP2,2013-01-02 01:58:00,
2013-01-01 19:03:00,31.4,22.5,30.31,North,0,0.0,0.0,69,0.00,,,0.01,WUHU216DAVISVP2,2013-01-02 02:03:00,
2013-01-01 19:08:00,31.4,22.5,30.31,North,0,0.0,0.0,69,0.00,,,0.01,WUHU216DAVISVP2,2013-01-02 02:08:00,
2013-01-01 19:13:00,31.1,22.5,30.31,North,0,0.0,0.0,70,0.00,,,0.01,WUHU216DAVISVP2,2013-01-02 02:13:00,
2013-01-01 19:19:00,30.7,22.5,30.32,North,0,0.0,0.0,71,0.00,,,0.01,WUHU216DAVISVP2,2013-01-02 02:19:00,
2013-01-01 19:24:00,30.4,22.5,30.32,North,0,0.0,0.0,72,0.00,,,0.01,WUHU216DAVISVP2,2013-01-02 02:24:00,
2013-01-01 19:29:00,30.2,22.3,30.31,North,0,0.0,0.0,72,0.00,,,0.01,WUHU216DAVISVP2,2013-01-02 02:29:00,
2013-01-01 19:34:00,30.5,22.6,30.31,North,0,0.0,0.0,72,0.00,,,0.01,WUHU216DAVISVP2,2013-01-02 02:34:00,
2013-01-01 19:39:00,30.9,22.0,30.31,North,0,0.0,0.0,69,0.00,,,0.01,WUHU216DAVISVP2,2013-01-02 02:39:00,
2013-01-01 19:44:00,31.2,21.6,30.32,North,0,0.0,0.0,67,0.00,,,0.01,WUHU216DAVISVP2,2013-01-02 02:44:00,
2013-01-01 19:49:00,31.6,21.6,30.32,North,0,0.0,0.0,66,0.00,,,0.01,WUHU216DAVISVP2,2013-01-02 02:49:00,
2013-01-01 19:54:00,31.8,21.4,30.31,North,0,0.0,0.0,65,0.00,,,0.01,WUHU216DAVISVP2,2013-01-02 02:54:00,
2013-01-01 19:59:00,32.2,20.7,30.31,NE,48,3.0,7.0,62,0.00,,,0.01,WUHU216DAVISVP2,2013-01-02 02:59:00,
2013-01-01 20:04:00,33.0,21.1,30.32,NE,52,2.0,5.0,61,0.00,,,0.01,WUHU216DAVISVP2,2013-01-02 03:04:00,
2013-01-01 20:09:00,33.1,20.8,30.32,ENE,58,3.0,5.0,60,0.00,,,0.01,WUHU216DAVISVP2,2013-01-02 03:09:00,
2013-01-01 20:14:00,32.9,20.6,30.31,North,0,0.0,0.0,60,0.00,,,0.01,WUHU216DAVISVP2,2013-01-02 03:14:00,
2013-01-01 20:19:00,33.0,21.1,30.31,NNE,18,2.0,2.0,61,0.00,,,0.01,WUHU216DAVISVP2,2013-01-02 03:19:00,
2013-01-01 20:24:00,33.6,21.6,30.31,NNE,20,2.0,4.0,61,0.00,,,0.01,WUHU216DAVISVP2,2013-01-02 03:24:00,
2013-01-01 20:29:00,34.2,21.4,30.31,NNE,20,2.0,4.0,59,0.00,,,0.01,WUHU216DAVISVP2,2013-01-02 03:29:00,
2013-01-01 20:34:00,34.6,21.4,30.31,NNE,12,3.0,9.0,58,0.00,,,0.01,WUHU216DAVISVP2,2013-01-02 03:34:00,
2013-01-01 20:39:00,34.8,21.6,30.31,North,7,4.0,10.0,58,0.00,,,0.01,WUHU216DAVISVP2,2013-01-02 03:39:00,
2013-01-01 20:45:00,34.8,21.6,30.31,North,0,0.0,0.0,58,0.00,,,0.01,WUHU216DAVISVP2,2013-01-02 03:45:00,
2013-01-01 20:50:00,34.7,21.5,30.32,North,0,0.0,0.0,58,0.00,,,0.01,WUHU216DAVISVP2,2013-01-02 03:50:00,
2013-01-01 20:55:00,34.7,21.5,30.32,North,0,0.0,0.0,58,0.00,,,0.01,WUHU216DAVISVP2,2013-01-02 03:55:00,
2013-01-01 21:00:00,34.8,21.6,30.32,North,0,0.0,0.0,58,0.00,,,0.01,WUHU216DAVISVP2,2013-01-02 04:00:00,
2013-01-01 21:05:00,34.7,21.5,30.32,North,0,0.0,0.0,58,0.00,,,0.01,WUHU216DAVISVP2,2013-01-02 04:05:00,
2013-01-01 21:10:00,34.5,21.3,30.31,North,0,0.0,0.0,58,0.00,,,0.01,WUHU216DAVISVP2,2013-01-02 04:10:00,
2013-01-01 21:15:00,33.9,21.1,30.31,North,0,0.0,0.0,59,0.00,,,0.01,WUHU216DAVISVP2,2013-01-02 04:15:00,
2013-01-01 21:20:00,33.3,21.0,30.31,North,0,0.0,0.0,60,0.00,,,0.01,WUHU216DAVISVP2,2013-01-02 04:20:00,
2013-01-01 21:25:00,32.6,20.7,30.31,North,0,0.0,0.0,61,0.00,,,0.01,WUHU216DAVISVP2,2013-01-02 04:25:00,
2013-01-01 21:30:00,31.8,20.7,30.31,North,0,0.0,0.0,63,0.00,,,0.01,WUHU216DAVISVP2,2013-01-02 04:30:00,
2013-01-01 21:35:00,31.4,20.3,30.30,North,0,0.0,0.0,63,0.00,,,0.01,WUHU216DAVISVP2,2013-01-02 04:35:00,
2013-01-01 21:40:00,31.4,20.7,30.30,North,0,0.0,0.0,64,0.00,,,0.01,WUHU216DAVISVP2,2013-01-02 04:40:00,
2013-01-01 21:45:00,31.2,20.9,30.30,North,0,0.0,0.0,65,0.00,,,0.01,WUHU216DAVISVP2,2013-01-02 04:45:00,
2013-01-01 21:50:00,31.0,20.3,30.30,North,0,0.0,0.0,64,0.00,,,0.01,WUHU216DAVISVP2,2013-01-02 04:50:00,
2013-01-01 21:56:00,31.1,20.4,30.30,North,0,0.0,0.0,64,0.00,,,0.01,WUHU216DAVISVP2,2013-01-02 04:56:00,
2013-01-01 22:01:00,31.3,20.6,30.31,North,0,0.0,0.0,64,0.00,,,0.01,WUHU216DAVISVP2,2013-01-02 05:01:00,
2013-01-01 22:06:00,31.7,20.6,30.31,North,0,0.0,0.0,63,0.00,,,0.01,WUHU216DAVISVP2,2013-01-02 05:06:00,
2013-01-01 22:11:00,32.1,21.0,30.31,North,0,0.0,0.0,63,0.00,,,0.01,WUHU216DAVISVP2,2013-01-02 05:11:00,
2013-01-01 22:16:00,32.1,20.6,30.31,North,0,0.0,0.0,62,0.00,,,0.01,WUHU216DAVISVP2,2013-01-02 05:16:00,
2013-01-01 22:21:00,32.6,20.3,30.31,North,0,0.0,0.0,60,0.00,,,0.01,WUHU216DAVISVP2,2013-01-02 05:21:00,
2013-01-01 22:26:00,33.0,20.3,30.31,North,0,0.0,0.0,59,0.00,,,0.01,WUHU216DAVISVP2,2013-01-02 05:26:00,
2013-01-01 22:31:00,33.1,20.4,30.31,North,0,0.0,0.0,59,0.00,,,0.01,WUHU216DAVISVP2,2013-01-02 05:31:00,
2013-01-01 22:36:00,33.3,20.6,30.31,North,11,2.0,4.0,59,0.00,,,0.01,WUHU216DAVISVP2,2013-01-02 05:36:00,
2013-01-01 22:41:00,33.6,20.4,30.31,NE,48,2.0,2.0,58,0.00,,,0.01,WUHU216DAVISVP2,2013-01-02 05:41:00,
2013-01-01 22:46:00,33.5,20.3,30.31,North,0,0.0,0.0,58,0.00,,,0.01,WUHU216DAVISVP2,2013-01-02 05:46:00,
2013-01-01 22:52:00,33.6,20.4,30.31,North,353,2.0,5.0,58,0.00,,,0.01,WUHU216DAVISVP2,2013-01-02 05:52:00,
2013-01-01 22:57:00,33.7,20.1,30.31,NNE,23,2.0,3.0,57,0.00,,,0.01,WUHU216DAVISVP2,2013-01-02 05:57:00,
2013-01-01 23:02:00,33.8,20.2,30.31,North,0,0.0,0.0,57,0.00,,,0.01,WUHU216DAVISVP2,2013-01-02 06:02:00,
2013-01-01 23:07:00,33.6,20.0,30.31,NNE,21,2.0,2.0,57,0.00,,,0.01,WUHU216DAVISVP2,2013-01-02 06:07:00,
2013-01-01 23:12:00,33.4,20.2,30.31,North,10,3.0,6.0,58,0.00,,,0.01,WUHU216DAVISVP2,2013-01-02 06:12:00,
2013-01-01 23:17:00,33.4,20.2,30.31,North,9,3.0,8.0,58,0.00,,,0.01,WUHU216DAVISVP2,2013-01-02 06:17:00,
2013-01-01 23:22:00,33.6,20.4,30.32,NNE,13,2.0,5.0,58,0.00,,,0.01,WUHU216DAVISVP2,2013-01-02 06:22:00,
2013-01-01 23:27:00,33.2,20.5,30.32,North,0,0.0,0.0,59,0.00,,,0.01,WUHU216DAVISVP2,2013-01-02 06:27:00,
2013-01-01 23:32:00,32.6,19.5,30.32,North,0,0.0,0.0,58,0.00,,,0.01,WUHU216DAVISVP2,2013-01-02 06:32:00,
2013-01-01 23:37:00,31.9,19.6,30.32,North,0,0.0,0.0,60,0.00,,,0.01,WUHU216DAVISVP2,2013-01-02 06:37:00,
2013-01-01 23:42:00,31.6,19.7,30.32,North,6,4.0,6.0,61,0.00,,,0.01,WUHU216DAVISVP2,2013-01-02 06:42:00,
2013-01-01 23:47:00,31.5,19.6,30.32,North,0,0.0,0.0,61,0.00,,,0.01,WUHU216DAVISVP2,2013-01-02 06:47:00,
2013-01-01 23:52:00,31.3,19.5,30.32,North,0,0.0,0.0,61,0.00,,,0.01,WUHU216DAVISVP2,2013-01-02 06:52:00,
2013-01-01 23:57:00,31.0,19.2,30.32,North,0,0.0,0.0,61,0.00,,,0.01,WUHU216DAVISVP2,2013-01-02 06:57:00,